DateTimeUTC,F1_A11,F1_S11,BsB_S11,BsG_S11,BsR_S11,BbsB_S11,BbsG_S11,BbsR_S11,BaB_A11,BaG_A11,BaR_A11,Tu_S11,T_S11,Uu_S11,U_S11,P_S11,T1_A11
2021-03-22T20:00:00Z,00000200,21000000,,,,,,,-000.66,0000.02,-000.30,16.6,24.4,,00.0,0625.6,31.0
2021-03-22T20:01:00Z,00000200,21000000,,,,,,,0000.17,-000.43,-000.12,16.6,24.4,,00.0,0625.6,30.9
2021-03-22T20:02:00Z,00000200,21000000,,,,,,,-000.38,-000.51,-000.44,16.6,24.4,,00.0,0625.6,30.9
2021-03-22T20:03:00Z,00000200,61000000,,,,,,,-000.04,0000.24,0000.16,16.5,24.4,,00.0,0625.6,30.9
2021-03-22T20:04:00Z,00000200,41000000,0001.23,0001.12,0000.87,0000.31,0000.32,0000.25,0000.32,0000.39,0000.58,16.6,24.1,,00.0,0626.5,30.9
2021-03-22T20:05:00Z,00000200,01000000,0001.15,0001.46,0000.57,0000.31,0000.24,0000.33,0000.47,0000.30,0000.04,16.7,24.1,,00.0,0626.6,31.0
2021-03-22T20:06:00Z,00000200,01000000,0000.94,0001.45,0000.82,-000.21,0000.09,0000.23,0000.51,0000.48,0000.50,16.8,24.1,,00.0,0626.6,31.0
2021-03-22T20:07:00Z,00000200,01000000,0001.08,0000.99,0000.93,0000.50,0000.23,-000.08,0000.26,0000.35,0000.35,16.9,24.1,,00.0,0626.6,31.0
2021-03-22T20:08:00Z,00000200,01000000,0001.21,0001.14,0000.83,0000.31,0000.37,0000.20,0000.34,0000.29,0000.05,16.9,24.2,,00.0,0626.6,31.0
2021-03-22T20:09:00Z,00000200,01000000,0002.05,0001.23,0000.76,0000.23,0000.23,0000.29,0000.70,0000.78,0000.50,17.0,24.2,,00.0,0626.6,31.0
2021-03-22T20:10:00Z,00000200,01000000,0001.47,0001.09,0000.67,0000.32,0000.17,0000.08,0000.25,0000.37,0000.38,17.1,24.2,,00.0,0626.6,31.0
2021-03-22T20:11:00Z,00000200,01000000,0000.88,0000.91,0000.77,0000.39,0000.26,-000.12,0000.53,0000.48,0000.23,17.1,24.2,,00.0,0626.7,31.0
2021-03-22T20:12:00Z,00000200,01000000,0001.04,0000.90,0000.79,0000.35,0000.12,0000.22,0000.37,0000.06,0000.09,17.2,24.3,,00.0,0626.7,31.0
2021-03-22T20:13:00Z,00000200,01000000,0001.22,0001.25,0000.64,-000.07,0000.05,0000.17,0000.44,0000.45,0000.46,17.1,24.3,,00.0,0626.7,31.0
2021-03-22T20:14:00Z,00000200,01000000,0001.43,0000.89,0000.56,0000.65,0000.25,0000.30,0000.23,0000.23,-000.16,17.1,24.2,,00.0,0626.7,31.0
2021-03-22T20:15:00Z,00000200,01000000,0000.88,0001.15,0000.32,0000.17,0000.14,-000.01,0000.29,0000.21,0000.09,17.0,24.2,,00.0,0626.7,31.0
2021-03-22T20:16:00Z,00000200,01000000,0001.06,0000.95,0000.72,0000.57,0000.25,0000.29,0000.46,0000.17,0000.47,17.0,24.2,,00.0,0626.7,31.0
2021-03-22T20:17:00Z,00000200,01000000,0001.76,0001.29,0000.81,0000.45,0000.37,0000.22,0000.37,0000.41,0000.67,16.9,24.2,,00.0,0626.7,30.9
2021-03-22T20:18:00Z,00000200,01000000,0000.98,0001.24,0000.89,-000.03,0000.10,0000.20,0000.76,0000.82,0000.05,16.8,24.1,,00.0,0626.7,30.9
2021-03-22T20:19:00Z,00000200,01000000,0001.48,0000.95,0000.47,0000.58,0000.14,-000.05,0000.40,0000.27,0000.46,16.8,24.1,,00.0,0626.7,30.9
2021-03-22T20:20:00Z,00000200,01000000,0001.57,0000.87,0000.85,-000.02,0000.11,0000.25,0000.52,0000.58,0000.46,16.9,24.1,,00.0,0626.7,31.0
2021-03-22T20:21:00Z,00000200,01000000,0001.17,0001.07,0000.66,0000.27,0000.20,0000.18,0000.34,0000.24,-000.11,16.9,24.1,,00.0,0626.7,31.0
2021-03-22T20:22:00Z,00000200,01000000,0001.29,0001.05,0001.07,0000.47,0000.24,0000.09,0000.41,0000.51,0000.53,17.0,24.2,,00.0,0626.7,31.0
2021-03-22T20:23:00Z,00000200,01000000,0001.35,0001.25,0000.49,0000.20,0000.43,0000.08,0000.26,0000.38,0000.26,17.1,24.2,,00.0,0626.7,31.0
2021-03-22T20:24:00Z,00000200,01000000,0001.21,0001.25,0000.62,0000.51,-000.01,0000.36,0000.64,0000.45,0000.36,17.1,24.2,,00.0,0626.7,31.0
2021-03-22T20:25:00Z,00000200,01000000,0001.41,0001.32,0000.92,0000.31,0000.33,0000.08,0000.49,0000.63,0000.29,17.2,24.3,,00.0,0626.7,31.0
2021-03-22T20:26:00Z,00000200,01000000,0001.49,0000.95,0000.76,0000.16,-000.02,0000.47,0000.30,0000.01,0000.67,17.3,24.3,,00.0,0626.7,31.0
2021-03-22T20:27:00Z,00000200,01000000,0001.47,0001.06,0000.71,0000.33,0000.28,0000.08,0000.51,0000.79,0000.17,17.3,24.3,,00.0,0626.7,31.0
2021-03-22T20:28:00Z,00000200,01000000,0001.12,0001.16,0000.74,0000.03,0000.02,0000.46,0000.50,0000.53,0000.24,17.4,24.4,,00.0,0626.7,31.0
2021-03-22T20:29:00Z,00000200,01000000,0001.27,0001.08,0000.82,-000.23,0000.08,0000.39,0000.71,0000.05,0000.41,17.4,24.4,,00.0,0626.7,31.0
2021-03-22T20:30:00Z,00000200,01000000,0001.21,0001.02,0000.66,-000.15,-000.10,0000.12,0000.51,0000.80,0000.30,17.5,24.4,,00.0,0626.7,31.0
2021-03-22T20:31:00Z,00000200,01000000,0001.32,0001.18,0000.72,0000.83,0000.10,0000.15,0000.28,-000.01,0000.23,17.5,24.4,,00.0,0626.7,31.0
2021-03-22T20:32:00Z,00000200,01000000,0001.00,0001.36,0000.63,-000.14,0000.15,0000.10,0000.08,0000.62,0000.31,17.5,24.5,,00.0,0626.7,31.0
2021-03-22T20:33:00Z,00000200,01000000,0001.10,0001.17,0000.75,-000.17,0000.05,0000.32,0000.53,-000.02,-000.06,17.5,24.4,,00.0,0626.7,31.0
2021-03-22T20:34:00Z,00000200,01000000,0001.26,0001.16,0000.61,0000.23,0000.20,0000.01,0000.41,0000.46,0000.34,17.4,24.4,,00.0,0626.7,31.0
2021-03-22T20:35:00Z,00000200,01000000,0001.30,0001.31,0000.88,0000.30,0000.27,0000.42,0000.15,0000.14,0000.15,17.3,24.4,,00.0,0626.7,31.0
2021-03-22T20:36:00Z,00000200,01000000,0001.42,0000.78,0000.58,0000.43,0000.23,-000.03,0001.00,0000.91,0000.35,17.3,24.4,,00.0,0626.7,31.0
2021-03-22T20:37:00Z,00000200,01000000,0000.99,0001.20,0000.82,0000.40,0000.20,0000.23,0000.25,0000.14,0000.29,17.2,24.4,,00.0,0626.7,31.0
2021-03-22T20:38:00Z,00000200,01000000,0001.08,0001.27,0000.94,0000.62,0000.25,0000.41,0000.41,0000.27,0000.39,17.1,24.3,,00.0,0626.7,31.0
2021-03-22T20:39:00Z,00000200,01000000,0001.26,0001.05,0000.75,0000.33,-000.02,0000.23,0000.28,0000.67,0000.41,17.0,24.3,,00.0,0626.7,30.9
2021-03-22T20:40:00Z,00000200,01000000,0001.27,0001.26,0000.68,0000.50,0000.29,0000.03,0000.52,0000.16,0000.19,17.0,24.3,,00.0,0626.7,30.9
2021-03-22T20:41:00Z,00000200,01000000,0001.05,0001.13,0000.77,0000.49,0000.17,0000.25,0000.45,0000.15,0000.49,16.9,24.2,,00.0,0626.7,30.9
2021-03-22T20:42:00Z,00000200,01000000,0000.82,0001.18,0000.92,0000.20,0000.09,-000.05,0000.52,0000.49,0000.16,16.8,24.2,,00.0,0626.7,30.9
2021-03-22T20:43:00Z,00000200,01000000,0001.17,0001.51,0000.64,0000.29,0000.39,0000.13,0000.58,0000.59,0000.21,16.8,24.1,,00.0,0626.7,30.9
2021-03-22T20:44:00Z,00000200,01000000,0001.21,0001.05,0000.77,0000.69,0000.29,0000.30,0000.00,0000.23,0000.04,16.7,24.1,,00.0,0626.7,30.9
2021-03-22T20:45:00Z,00000200,01000000,0001.22,0001.44,0000.48,0000.45,0000.17,-000.07,0000.40,0000.43,0000.24,16.7,24.1,,00.0,0626.7,30.9
2021-03-22T20:46:00Z,00000200,01000000,0000.98,0001.24,0000.67,0000.37,0000.08,0000.20,0000.69,0000.38,0000.29,16.6,24.0,,00.0,0626.7,30.9
2021-03-22T20:47:00Z,00000200,01000000,0001.67,0001.16,0000.94,0000.82,0000.33,0000.10,0000.19,0000.85,0000.61,16.6,24.0,,00.0,0626.7,30.9
2021-03-22T20:48:00Z,00000200,01000000,0001.17,0001.14,0000.60,-000.01,-000.01,0000.09,0001.16,0000.23,0000.61,16.5,24.0,,00.0,0626.7,30.9
2021-03-22T20:49:00Z,00000200,01000000,0001.46,0001.05,0000.93,0000.39,0000.19,0000.41,0000.44,0000.64,0000.15,16.5,23.9,,00.0,0626.7,30.9
2021-03-22T20:50:00Z,00000200,01000000,0001.03,0001.34,0000.72,0000.14,0000.01,0000.19,0000.78,0000.69,0000.72,16.6,23.9,,00.0,0626.7,30.9
2021-03-22T20:51:00Z,00000200,01000000,0002.10,0001.08,0000.88,0000.44,0000.40,0000.06,0000.25,0000.12,0000.46,16.6,23.9,,00.0,0626.7,30.9
2021-03-22T20:52:00Z,00000200,01000000,0000.85,0001.17,0000.70,0000.03,0000.01,0000.07,0000.55,0000.78,0000.23,16.7,24.0,,00.0,0626.7,30.9
2021-03-22T20:53:00Z,00000200,01000000,0001.24,0001.33,0000.69,0000.31,0000.10,0000.24,0000.33,0000.44,0000.43,16.8,24.0,,00.0,0626.7,31.0
2021-03-22T20:54:00Z,00000200,01000000,0001.70,0001.18,0000.81,0000.84,0000.07,0000.22,0000.70,0000.29,-000.01,16.8,24.0,,00.0,0626.7,31.0
2021-03-22T20:55:00Z,00000200,01000000,0001.49,0001.15,0000.78,0000.03,0000.18,0000.22,0000.44,0000.51,0000.67,16.9,24.1,,00.0,0626.7,31.0
2021-03-22T20:56:00Z,00000200,01000000,0000.95,0001.19,0000.83,0000.08,0000.08,0000.31,0000.41,-000.20,-000.23,16.9,24.1,,00.0,0626.7,31.0
2021-03-22T20:57:00Z,00000200,41000000,,,,,,,0001.53,0002.06,0001.67,17.0,24.1,,00.0,0626.7,31.0
2021-03-22T20:58:00Z,00000200,61000000,,,,,,,-000.58,-000.93,-000.95,16.5,24.2,,00.0,0625.8,31.0
2021-03-22T20:59:00Z,00000200,21000000,,,,,,,-000.73,-000.31,-000.25,16.4,24.3,,00.0,0625.8,30.9
